Wind_Speed
56 53 55 56 59 59 66 73 60 77 66 70 66 68 65 62 60 58 54 51 48 44 42 41 42 53 57 60 54 48 49 44 42 42 42 36 36 36
49 49 50 50 58 60 62 67 60 52 83 76 72 72 68 63 63 62 56 47 43 42 43 38 56 53 58 58 56 47 49 44 44 45 43 39 39 38
46 46 43 48 48 54 50 54 54 50 79 71 75 65 68 63 62 68 58 53 51 44 45 41 61 57 56 56 53 50 53 49 46 47 44 42 41 39
39 33 32 43 41 41 42 47 45 52 54 57 65 71 65 67 69 66 61 56 53 50 46 46 51 58 58 58 57 57 54 52 49 48 47 46 45 42
32 30 28 32 21 26 37 40 37 35 47 58 58 60 66 79 60 60 60 61 60 54 50 47 56 62 68 63 59 59 57 58 57 55 53 51 49 48
27 32 28 33 28 25 27 27 32 31 27 34 42 52 55 53 56 61 53 44 46 47 45 49 58 56 71 65 62 63 65 66 66 61 58 59 54 52
24 25 25 29 26 29 25 28 27 35 38 42 33 33 34 34 42 40 42 44 42 43 50 47 43 47 56 61 57 58 60 62 68 70 68 64 60 57
21 22 25 26 29 25 29 25 26 24 27 25 29 33 36 44 40 44 48 43 45 49 51 48 46 53 53 56 60 59 58 62 65 69 67 65 61 56
19 18 20 24 27 26 24 26 29 33 35 34 35 39 40 45 48 46 54 56 44 49 51 53 52 57 59 62 63 65 63 65 67 69 71 68 63 59
18 19 18 24 25 24 23 26 26 29 35 39 39 40 41 42 45 48 50 56 53 52 57 61 64 68 67 65 65 66 68 64 62 61 65 70 70 68
17 21 22 20 22 25 24 23 24 27 29 31 33 35 38 39 40 42 46 50 53 54 57 62 63 63 66 62 63 66 65 64 64 64 65 65 66 65
19 19 19 22 24 24 24 26 29 30 30 31 33 34 36 40 43 45 46 48 51 54 55 55 56 59 61 63 66 67 67 69 70 69 67 66 65 64
19 22 21 22 23 25 27 28 29 32 34 37 40 41 42 44 47 49 50 52 54 58 60 61 63 64 66 65 67 70 71 73 75 75 75 74 72 70
20 20 20 22 24 26 28 30 32 33 35 38 40 42 44 47 48 50 52 55 57 59 60 61 64 66 68 69 70 73 74 75 76 78 79 80 81 78
21 23 24 26 29 31 33 35 36 39 42 45 46 48 50 51 54 56 59 61 63 65 66 67 69 73 75 77 79 82 83 83 84 84 85 85 85 85
27 29 31 33 34 36 38 41 43 45 48 50 52 54 55 57 59 62 64 67 70 72 73 75 77 80 82 84 84 88 90 89 94 94 93 93 95 95
36 38 39 40 42 44 46 47 49 50 52 55 57 59 61 62 64 67 69 72 75 79 81 83 85 88 91 95 95 98 101 102 104 107 107 106 106 107
39 41 43 44 46 48 50 51 53 55 57 59 60 62 63 65 67 69 70 72 75 77 77 79 82 85 87 89 93 92 95 96 98 103 106 112 114 116
42 43 44 45 45 45 45 44 44 43 43 43 43 43 43 43 44 44 44 44 43 43 43 41 42 44 45 46 45 58 55 53 55 57 62 66 73 74
38 34 32 28 26 24 22 20 18 16 15 14 14 14 15 16 15 15 14 14 14 16 17 15 15 17 19 19 21 28 29 25 28 32 36 38 40 44
22 19 16 15 15 16 16 14 15 14 13 13 13 12 12 12 10 9 9 8 8 10 12 12 11 11 11 14 16 19 24 22 20 22 26 27 28 29
15 19 22 18 18 19 19 14 15 11 12 14 14 13 11 10 9 9 9 10 9 9 11 11 13 16 15 14 16 18 21 24 25 23 24 25 24 24
15 17 20 23 23 22 19 17 14 12 11 10 12 11 10 10 11 10 10 10 12 11 13 16 17 17 17 17 20 22 24 26 26 27 26 23 23 23
Wind_Direction
265 267 268 269 265 257 258 241 253 243 254 248 242 241 243 249 252 252 256 260 264 270 257 244 254 238 238 242 241 245 252 256 259 263 265 263 264 267
264 268 274 272 266 259 258 259 264 261 246 247 247 249 244 245 246 250 251 258 256 265 256 243 235 243 233 236 238 241 249 252 254 256 261 262 262 264
266 273 275 273 268 255 264 261 266 257 239 244 247 249 250 238 244 249 249 248 259 260 250 255 240 235 229 235 238 240 246 248 251 253 255 257 259 261
263 269 262 259 268 253 250 256 255 249 242 239 243 248 254 248 254 238 247 248 249 254 256 255 245 238 235 236 238 241 245 247 251 255 257 259 259 262
262 268 258 260 259 250 247 248 242 243 246 246 244 252 250 252 240 246 248 249 246 252 252 247 244 248 242 238 240 247 252 255 256 256 256 257 259 261
263 260 256 263 269 265 245 246 246 252 237 241 244 245 236 246 243 243 247 242 238 246 239 243 247 250 243 235 242 251 254 257 259 259 258 259 258 258
265 254 259 256 271 265 259 242 249 242 238 244 243 243 233 249 234 236 235 244 242 243 235 238 248 248 253 239 246 250 249 253 256 258 257 256 256 256
270 266 266 247 249 255 248 246 239 224 216 230 237 240 243 241 242 250 245 244 246 238 245 254 248 239 247 253 252 252 251 250 254 254 254 258 254 255
270 275 262 256 249 248 247 250 241 237 242 248 246 241 239 240 248 254 257 250 248 246 244 248 256 259 254 249 253 251 251 253 254 255 254 255 255 254
265 268 262 253 248 243 244 245 241 244 246 248 246 241 241 244 244 245 244 243 250 255 246 248 252 256 252 252 252 252 252 248 249 253 251 251 255 258
270 268 263 260 255 249 246 247 249 246 244 245 246 248 249 250 251 252 252 252 254 255 254 253 255 253 250 251 256 255 254 252 252 253 253 252 253 253
275 275 274 268 264 263 259 254 253 255 256 255 256 257 257 257 256 257 255 252 253 254 253 254 253 251 253 256 257 257 256 255 255 255 254 254 253 254
291 272 262 266 266 264 265 263 260 258 259 260 261 261 260 260 259 259 258 257 257 256 255 254 256 254 254 255 258 258 258 258 257 257 257 258 258 257
286 280 282 277 276 275 272 269 268 269 267 265 264 262 261 260 259 259 259 258 258 258 258 257 258 258 259 260 260 261 261 261 260 260 259 258 259 260
295 290 286 282 281 279 278 276 274 272 272 271 271 270 269 268 267 266 264 264 264 263 262 262 262 262 261 261 260 261 261 261 260 260 259 259 258 257
294 291 289 289 287 284 282 280 279 277 276 275 274 273 273 272 271 270 269 269 268 267 266 265 265 265 264 264 263 263 263 262 263 261 259 259 257 256
303 300 297 295 292 290 288 286 284 282 280 278 277 276 274 274 273 272 271 270 269 269 267 265 265 264 263 263 262 261 261 261 261 261 260 258 257 255
304 303 301 298 296 293 292 290 287 284 282 280 278 277 276 276 275 274 274 274 273 273 273 272 271 270 269 269 267 268 267 267 267 266 265 262 259 259
311 308 304 302 300 297 294 291 289 286 285 283 282 282 281 280 280 280 279 280 280 280 281 282 281 279 279 280 282 276 276 276 273 272 270 268 266 264
319 315 314 313 312 312 311 311 313 313 312 312 315 315 312 309 307 303 303 305 306 305 303 296 295 293 292 290 290 298 291 282 282 280 280 278 273 268
337 345 356 1 10 13 6 6 1 348 353 360 356 346 338 339 344 344 346 349 339 335 335 335 334 328 323 316 312 311 313 317 311 302 297 294 288 281
24 32 28 25 13 10 5 1 358 348 355 356 354 356 4 3 12 13 1 351 360 349 342 346 340 334 337 332 321 315 309 310 315 311 305 305 301 294
32 21 18 12 8 6 6 10 20 22 6 6 6 11 15 15 3 360 2 360 354 354 344 344 346 341 337 332 325 318 312 307 304 301 302 301 298 298
Height
5588 5590 5593 5594 5596 5600 5602 5606 5606 5615 5618 5624 5636 5639 5644 5652 5655 5657 5661 5663 5664 5662 5660 5664 5666 5672 5675 5679 5686 5691 5694 5695 5700 5704 5706 5706 5708 5710
5574 5576 5578 5579 5577 5582 5586 5589 5588 5592 5594 5603 5609 5623 5628 5632 5638 5643 5644 5648 5651 5652 5653 5654 5654 5657 5662 5668 5674 5678 5682 5683 5687 5690 5694 5695 5698 5698
5563 5564 5564 5564 5563 5565 5569 5576 5577 5579 5578 5587 5596 5598 5605 5615 5619 5625 5629 5633 5635 5638 5639 5643 5645 5648 5649 5656 5661 5664 5668 5669 5672 5678 5679 5682 5685 5687
5552 5553 5554 5551 5551 5550 5554 5561 5564 5565 5567 5569 5577 5583 5590 5596 5599 5606 5610 5618 5619 5623 5626 5628 5634 5639 5640 5644 5648 5653 5654 5657 5661 5665 5668 5673 5674 5676
5540 5542 5541 5540 5539 5540 5540 5546 5549 5552 5554 5558 5564 5569 5573 5576 5581 5587 5592 5599 5605 5608 5611 5613 5618 5623 5628 5632 5637 5641 5643 5646 5651 5652 5654 5660 5662 5664
5530 5532 5531 5530 5530 5532 5532 5534 5536 5538 5541 5547 5552 5556 5562 5564 5567 5572 5580 5582 5588 5594 5598 5603 5605 5607 5613 5617 5623 5626 5629 5632 5635 5639 5642 5646 5649 5651
5520 5521 5521 5522 5522 5523 5524 5526 5527 5528 5532 5537 5542 5546 5550 5555 5559 5564 5568 5571 5576 5579 5584 5588 5591 5596 5599 5603 5608 5612 5614 5616 5619 5623 5625 5628 5633 5636
5510 5510 5510 5511 5514 5515 5517 5518 5520 5520 5524 5528 5533 5537 5541 5545 5549 5552 5555 5559 5563 5568 5572 5574 5578 5581 5586 5590 5592 5594 5596 5599 5601 5604 5607 5612 5616 5620
5502 5501 5502 5502 5504 5506 5507 5509 5511 5513 5516 5519 5524 5527 5529 5533 5537 5540 5541 5544 5547 5554 5557 5558 5561 5565 5566 5568 5572 5575 5577 5580 5583 5586 5590 5594 5598 5603
5495 5495 5495 5497 5497 5498 5498 5500 5502 5504 5507 5510 5512 5515 5517 5520 5522 5524 5527 5529 5532 5537 5539 5541 5544 5546 5549 5549 5551 5554 5557 5560 5565 5568 5572 5576 5580 5585
5488 5489 5488 5489 5490 5491 5491 5492 5493 5495 5497 5500 5502 5504 5506 5507 5510 5512 5514 5515 5517 5520 5524 5524 5525 5528 5530 5533 5534 5536 5539 5542 5545 5549 5554 5556 5561 5566
5482 5481 5481 5481 5481 5483 5482 5483 5484 5486 5486 5487 5489 5491 5492 5495 5496 5498 5500 5501 5502 5504 5507 5508 5510 5513 5515 5514 5514 5516 5518 5522 5526 5530 5533 5537 5541 5546
5477 5476 5474 5474 5474 5475 5474 5474 5475 5476 5476 5476 5477 5478 5479 5481 5483 5484 5485 5485 5486 5487 5492 5494 5494 5495 5497 5498 5495 5495 5498 5500 5504 5507 5511 5515 5519 5524
5472 5470 5468 5466 5466 5464 5464 5464 5463 5463 5463 5464 5465 5465 5466 5468 5468 5469 5470 5470 5470 5471 5473 5475 5474 5475 5476 5475 5475 5472 5475 5477 5480 5484 5488 5491 5496 5500
5466 5464 5463 5461 5459 5457 5455 5454 5453 5452 5451 5451 5450 5449 5449 5449 5450 5449 5450 5449 5448 5449 5451 5453 5453 5452 5451 5451 5453 5448 5448 5451 5454 5458 5460 5464 5469 5473
5457 5454 5452 5449 5448 5446 5444 5441 5439 5437 5436 5434 5433 5432 5431 5431 5430 5429 5427 5426 5425 5425 5427 5428 5428 5427 5424 5424 5425 5421 5420 5426 5420 5423 5429 5433 5436 5441
5445 5442 5438 5435 5432 5429 5426 5424 5421 5419 5418 5415 5413 5412 5411 5409 5408 5406 5404 5403 5402 5399 5401 5402 5401 5398 5395 5391 5393 5391 5388 5389 5388 5384 5388 5395 5398 5401
5434 5429 5424 5420 5415 5411 5407 5404 5401 5398 5396 5394 5391 5389 5387 5385 5383 5381 5379 5376 5374 5371 5369 5369 5368 5365 5361 5356 5357 5354 5354 5352 5346 5344 5340 5347 5355 5349
5421 5416 5411 5405 5400 5395 5391 5388 5384 5381 5378 5374 5371 5369 5367 5365 5362 5360 5358 5355 5353 5351 5350 5347 5344 5342 5338 5335 5329 5323 5331 5324 5319 5314 5310 5309 5314 5310
5409 5404 5399 5393 5388 5384 5380 5376 5373 5370 5367 5365 5363 5360 5358 5356 5353 5351 5350 5348 5345 5343 5340 5339 5335 5332 5329 5327 5322 5314 5315 5312 5306 5301 5296 5293 5291 5287
5402 5397 5393 5389 5385 5381 5378 5374 5371 5368 5365 5363 5361 5358 5356 5353 5351 5349 5347 5345 5342 5340 5336 5333 5331 5328 5325 5321 5318 5313 5307 5302 5298 5293 5288 5283 5279 5275
5402 5398 5394 5391 5387 5383 5379 5376 5372 5368 5366 5364 5361 5358 5355 5353 5350 5348 5346 5343 5340 5338 5335 5332 5329 5325 5322 5318 5314 5309 5303 5297 5290 5286 5281 5275 5270 5265
5403 5400 5397 5392 5387 5383 5379 5375 5372 5369 5367 5364 5361 5358 5355 5353 5350 5348 5345 5343 5340 5337 5334 5330 5326 5322 5318 5313 5308 5302 5296 5289 5283 5276 5270 5266 5262 5257